QPF
0.02 0.01 0.01 0.01 0.02 0.03 0.01 0.02 0.02 0.03 0.04 0.07 0.09 0.09 0.12 0.14 0.17 0.15 0.10 0.09 0.09 0.10 0.11 0.10 0.10 0.10 0.08 0.07 0.08 0.11 0.10 0.09 0.11 0.11 0.12 0.10 0.07 0.06 0.05 0.04 0.04 0.04 0.04
0.01 0.01 0.02 0.02 0.02 0.02 0.01 0.02 0.02 0.01 0.02 0.04 0.06 0.07 0.08 0.12 0.14 0.13 0.11 0.10 0.09 0.09 0.09 0.11 0.12 0.10 0.08 0.08 0.09 0.12 0.10 0.08 0.10 0.10 0.10 0.09 0.08 0.06 0.04 0.05 0.05 0.03 0.03
0.02 0.02 0.02 0.04 0.03 0.02 0.03 0.02 0.02 0.02 0.02 0.02 0.04 0.06 0.07 0.07 0.08 0.08 0.06 0.06 0.06 0.07 0.09 0.11 0.12 0.12 0.09 0.08 0.10 0.12 0.10 0.09 0.09 0.10 0.10 0.09 0.08 0.07 0.06 0.05 0.05 0.05 0.06
0.02 0.02 0.02 0.03 0.03 0.03 0.03 0.02 0.02 0.03 0.02 0.03 0.04 0.05 0.06 0.06 0.05 0.05 0.05 0.04 0.05 0.06 0.08 0.09 0.09 0.10 0.10 0.09 0.09 0.12 0.11 0.10 0.10 0.11 0.13 0.12 0.12 0.11 0.10 0.10 0.07 0.06 0.05
0.01 0.01 0.02 0.04 0.04 0.04 0.04 0.04 0.05 0.06 0.05 0.05 0.06 0.07 0.07 0.06 0.05 0.04 0.04 0.04 0.04 0.04 0.06 0.09 0.11 0.11 0.10 0.10 0.09 0.10 0.10 0.10 0.09 0.11 0.13 0.17 0.22 0.20 0.15 0.11 0.08 0.07 0.05
0.01 0.01 0.02 0.03 0.03 0.04 0.05 0.06 0.07 0.07 0.08 0.07 0.08 0.09 0.08 0.07 0.06 0.04 0.04 0.04 0.04 0.04 0.05 0.07 0.10 0.10 0.10 0.10 0.09 0.10 0.09 0.09 0.08 0.09 0.08 0.08 0.10 0.13 0.13 0.10 0.08 0.07 0.06
0.02 0.04 0.04 0.03 0.03 0.03 0.04 0.04 0.06 0.07 0.08 0.10 0.11 0.09 0.07 0.06 0.05 0.05 0.04 0.04 0.03 0.04 0.05 0.06 0.07 0.08 0.09 0.09 0.09 0.09 0.08 0.08 0.07 0.08 0.09 0.07 0.05 0.06 0.06 0.06 0.05 0.05 0.05
0.05 0.07 0.06 0.04 0.02 0.02 0.02 0.03 0.05 0.06 0.07 0.08 0.10 0.09 0.08 0.06 0.04 0.05 0.05 0.04 0.04 0.04 0.04 0.05 0.06 0.08 0.08 0.08 0.09 0.10 0.08 0.08 0.08 0.09 0.09 0.06 0.04 0.05 0.04 0.04 0.05 0.05 0.05
0.02 0.04 0.06 0.04 0.02 0.02 0.03 0.02 0.03 0.04 0.05 0.07 0.09 0.07 0.07 0.08 0.06 0.05 0.05 0.04 0.04 0.03 0.04 0.04 0.06 0.07 0.07 0.08 0.10 0.10 0.10 0.09 0.09 0.09 0.09 0.06 0.04 0.04 0.04 0.04 0.06 0.07 0.08
0.01 0.01 0.01 0.02 0.02 0.03 0.03 0.02 0.03 0.03 0.05 0.07 0.07 0.05 0.06 0.07 0.07 0.06 0.04 0.04 0.04 0.03 0.04 0.05 0.06 0.06 0.06 0.08 0.09 0.10 0.11 0.09 0.08 0.08 0.08 0.07 0.04 0.04 0.04 0.05 0.06 0.07 0.07
0.01 0.01 0.01 0.01 0.02 0.03 0.03 0.03 0.03 0.04 0.03 0.05 0.06 0.06 0.08 0.08 0.07 0.06 0.04 0.04 0.05 0.05 0.05 0.05 0.08 0.08 0.08 0.08 0.08 0.08 0.09 0.09 0.08 0.08 0.06 0.06 0.05 0.06 0.06 0.06 0.06 0.07 0.08
0.01 0.01 0.01 0.01 0.02 0.02 0.03 0.03 0.03 0.03 0.02 0.04 0.06 0.07 0.08 0.07 0.06 0.04 0.04 0.04 0.05 0.06 0.06 0.05 0.08 0.08 0.08 0.08 0.07 0.06 0.06 0.07 0.08 0.08 0.08 0.07 0.07 0.08 0.07 0.07 0.07 0.06 0.07
0.01 0.01 0.01 0.01 0.01 0.01 0.03 0.03 0.03 0.03 0.03 0.03 0.05 0.07 0.07 0.08 0.08 0.06 0.06 0.07 0.07 0.06 0.06 0.07 0.09 0.09 0.08 0.08 0.07 0.07 0.07 0.07 0.08 0.08 0.08 0.08 0.08 0.08 0.08 0.07 0.06 0.06 0.06
0.02 0.02 0.02 0.01 0.01 0.01 0.02 0.02 0.03 0.04 0.04 0.04 0.04 0.06 0.07 0.10 0.13 0.10 0.08 0.08 0.08 0.07 0.06 0.08 0.09 0.07 0.06 0.06 0.06 0.06 0.07 0.08 0.08 0.07 0.06 0.06 0.06 0.06 0.06 0.05 0.05 0.06 0.07
0.02 0.01 0.01 0.01 0.01 0.01 0.01 0.02 0.03 0.04 0.05 0.06 0.07 0.09 0.09 0.11 0.14 0.14 0.12 0.10 0.08 0.06 0.07 0.07 0.07 0.06 0.06 0.05 0.04 0.04 0.05 0.07 0.08 0.07 0.05 0.04 0.05 0.05 0.04 0.03 0.04 0.05 0.06
0.01 0.01 0.01 0.01 0.01 0.01 0.01 0.02 0.03 0.05 0.05 0.06 0.09 0.10 0.10 0.11 0.12 0.12 0.10 0.09 0.08 0.07 0.07 0.07 0.06 0.05 0.04 0.05 0.05 0.03 0.03 0.04 0.06 0.07 0.06 0.04 0.04 0.02 0.02 0.02 0.03 0.03 0.04
0.01 0.01 0.01 0.02 0.02 0.02 0.02 0.03 0.05 0.06 0.05 0.05 0.04 0.04 0.06 0.07 0.08 0.07 0.07 0.08 0.09 0.09 0.08 0.08 0.06 0.05 0.05 0.04 0.04 0.04 0.03 0.04 0.06 0.08 0.07 0.05 0.03 0.02 0.03 0.03 0.03 0.03 0.03
0.01 0.01 0.01 0.02 0.02 0.02 0.02 0.04 0.05 0.06 0.06 0.05 0.05 0.05 0.06 0.06 0.06 0.06 0.07 0.08 0.09 0.08 0.09 0.07 0.06 0.06 0.07 0.06 0.05 0.04 0.05 0.06 0.07 0.08 0.07 0.07 0.05 0.03 0.03 0.03 0.04 0.05 0.05
0.01 0.01 0.02 0.03 0.02 0.02 0.03 0.04 0.05 0.05 0.05 0.04 0.04 0.04 0.04 0.04 0.06 0.07 0.08 0.08 0.07 0.06 0.05 0.06 0.07 0.07 0.07 0.06 0.04 0.04 0.06 0.07 0.07 0.04 0.04 0.05 0.04 0.03 0.03 0.03 0.04 0.05 0.05
0.01 0.02 0.03 0.04 0.02 0.02 0.03 0.05 0.06 0.05 0.04 0.03 0.03 0.03 0.04 0.04 0.05 0.08 0.10 0.09 0.07 0.05 0.05 0.06 0.07 0.07 0.07 0.06 0.04 0.04 0.05 0.05 0.05 0.04 0.04 0.03 0.02 0.03 0.03 0.04 0.05 0.05 0.05
0.01 0.02 0.04 0.05 0.02 0.02 0.03 0.05 0.06 0.05 0.04 0.03 0.03 0.04 0.05 0.06 0.06 0.07 0.08 0.08 0.07 0.05 0.05 0.06 0.06 0.06 0.06 0.04 0.03 0.03 0.03 0.03 0.04 0.03 0.03 0.02 0.02 0.03 0.03 0.03 0.03 0.03 0.03
0.02 0.03 0.06 0.06 0.03 0.02 0.03 0.04 0.05 0.05 0.04 0.04 0.04 0.05 0.05 0.04 0.06 0.07 0.07 0.05 0.05 0.05 0.04 0.05 0.04 0.05 0.05 0.03 0.03 0.02 0.02 0.02 0.03 0.04 0.03 0.03 0.03 0.03 0.03 0.03 0.01 0.01 0.01
0.03 0.04 0.07 0.07 0.04 0.03 0.03 0.04 0.05 0.04 0.04 0.06 0.05 0.05 0.05 0.05 0.06 0.06 0.05 0.03 0.04 0.04 0.05 0.05 0.04 0.04 0.04 0.04 0.03 0.02 0.02 0.01 0.02 0.03 0.03 0.03 0.03 0.04 0.04 0.03 0.02 0.02 0.03
0.03 0.04 0.07 0.09 0.06 0.04 0.03 0.04 0.04 0.03 0.03 0.04 0.04 0.04 0.05 0.05 0.05 0.05 0.04 0.04 0.03 0.05 0.05 0.05 0.04 0.04 0.04 0.04 0.03 0.02 0.02 0.02 0.01 0.01 0.02 0.02 0.03 0.03 0.03 0.03 0.03 0.03 0.03
0.02 0.04 0.07 0.10 0.07 0.04 0.04 0.03 0.03 0.03 0.04 0.05 0.04 0.03 0.03 0.04 0.04 0.04 0.04 0.03 0.03 0.04 0.04 0.03 0.04 0.04 0.04 0.04 0.03 0.02 0.01 0.01 0.01 0.01 0.02 0.02 0.02 0.02 0.02 0.02 0.02 0.02 0.02
0.02 0.04 0.06 0.09 0.07 0.05 0.04 0.03 0.03 0.03 0.04 0.04 0.04 0.03 0.03 0.04 0.04 0.04 0.03 0.02 0.02 0.02 0.02 0.02 0.02 0.03 0.04 0.03 0.03 0.02 0.01 0.01 0.01 0.01 0.02 0.02 0.02 0.03 0.03 0.02 0.01 0.01 0.01
MSLP
1008.32 1008.15 1007.96 1007.78 1007.62 1007.48 1007.38 1007.30 1007.21 1007.12 1006.99 1006.83 1006.62 1006.40 1006.16 1005.93 1005.72 1005.55 1005.42 1005.32 1005.27 1005.26 1005.28 1005.35 1005.48 1005.69 1005.98 1006.38 1006.87 1007.44 1008.07 1008.71 1009.32 1009.86 1010.30 1010.63 1010.83 1010.93 1010.94 1010.92 1010.89 1010.90 1010.95
1008.46 1008.23 1007.95 1007.66 1007.39 1007.16 1007.00 1006.89 1006.81 1006.74 1006.66 1006.52 1006.35 1006.12 1005.87 1005.60 1005.35 1005.15 1005.00 1004.91 1004.89 1004.92 1005.00 1005.12 1005.29 1005.50 1005.77 1006.12 1006.54 1007.04 1007.60 1008.20 1008.81 1009.38 1009.88 1010.28 1010.56 1010.72 1010.77 1010.76 1010.70 1010.64 1010.61
1008.59 1008.30 1007.93 1007.54 1007.17 1006.85 1006.62 1006.47 1006.38 1006.32 1006.25 1006.15 1005.98 1005.76 1005.50 1005.20 1004.93 1004.70 1004.54 1004.46 1004.46 1004.53 1004.66 1004.82 1005.01 1005.22 1005.47 1005.76 1006.12 1006.54 1007.04 1007.59 1008.18 1008.78 1009.33 1009.80 1010.17 1010.42 1010.55 1010.57 1010.52 1010.44 1010.35
1008.68 1008.34 1007.90 1007.42 1006.95 1006.56 1006.25 1006.04 1005.92 1005.86 1005.80 1005.71 1005.56 1005.35 1005.08 1004.78 1004.49 1004.24 1004.07 1003.99 1004.00 1004.09 1004.24 1004.42 1004.63 1004.84 1005.06 1005.31 1005.60 1005.96 1006.40 1006.92 1007.49 1008.10 1008.69 1009.24 1009.70 1010.05 1010.27 1010.37 1010.37 1010.30 1010.19
1008.69 1008.30 1007.82 1007.28 1006.75 1006.28 1005.90 1005.64 1005.48 1005.39 1005.32 1005.24 1005.11 1004.92 1004.66 1004.36 1004.07 1003.81 1003.62 1003.53 1003.53 1003.62 1003.76 1003.95 1004.15 1004.35 1004.56 1004.78 1005.03 1005.35 1005.74 1006.23 1006.79 1007.41 1008.04 1008.65 1009.19 1009.64 1009.96 1010.14 1010.22 1010.20 1010.13
1008.60 1008.19 1007.68 1007.10 1006.53 1006.01 1005.58 1005.26 1005.06 1004.93 1004.85 1004.76 1004.65 1004.47 1004.24 1003.96 1003.68 1003.42 1003.22 1003.10 1003.07 1003.12 1003.24 1003.41 1003.60 1003.79 1003.99 1004.20 1004.45 1004.75 1005.13 1005.60 1006.15 1006.77 1007.42 1008.07 1008.67 1009.19 1009.60 1009.88 1010.05 1010.12 1010.13
1008.41 1007.99 1007.47 1006.89 1006.30 1005.74 1005.26 1004.90 1004.64 1004.46 1004.36 1004.26 1004.16 1004.02 1003.82 1003.58 1003.32 1003.06 1002.85 1002.70 1002.62 1002.63 1002.70 1002.83 1003.00 1003.19 1003.40 1003.63 1003.90 1004.22 1004.61 1005.08 1005.62 1006.23 1006.88 1007.53 1008.16 1008.72 1009.20 1009.57 1009.84 1010.02 1010.14
1008.13 1007.70 1007.19 1006.62 1006.03 1005.45 1004.93 1004.51 1004.18 1003.96 1003.82 1003.72 1003.63 1003.52 1003.37 1003.18 1002.96 1002.72 1002.50 1002.32 1002.20 1002.14 1002.16 1002.25 1002.40 1002.60 1002.83 1003.10 1003.42 1003.78 1004.21 1004.69 1005.24 1005.82 1006.44 1007.08 1007.69 1008.26 1008.78 1009.22 1009.58 1009.88 1010.12
1007.79 1007.36 1006.87 1006.32 1005.72 1005.12 1004.56 1004.07 1003.67 1003.38 1003.19 1003.06 1002.99 1002.92 1002.83 1002.70 1002.54 1002.34 1002.13 1001.93 1001.77 1001.67 1001.64 1001.69 1001.83 1002.04 1002.32 1002.66 1003.04 1003.48 1003.96 1004.47 1005.01 1005.57 1006.14 1006.72 1007.29 1007.84 1008.36 1008.84 1009.29 1009.69 1010.06
1007.45 1007.02 1006.54 1005.99 1005.38 1004.75 1004.12 1003.54 1003.05 1002.67 1002.42 1002.26 1002.19 1002.16 1002.14 1002.09 1002.00 1001.87 1001.70 1001.51 1001.33 1001.20 1001.14 1001.18 1001.32 1001.56 1001.89 1002.31 1002.79 1003.30 1003.85 1004.40 1004.94 1005.47 1005.99 1006.50 1007.00 1007.49 1007.99 1008.49 1008.99 1009.48 1009.96
1007.17 1006.73 1006.24 1005.67 1005.02 1004.32 1003.59 1002.90 1002.29 1001.80 1001.46 1001.25 1001.18 1001.18 1001.24 1001.28 1001.30 1001.26 1001.16 1001.02 1000.86 1000.74 1000.68 1000.72 1000.88 1001.16 1001.57 1002.07 1002.64 1003.25 1003.87 1004.46 1005.01 1005.52 1005.98 1006.42 1006.84 1007.28 1007.73 1008.22 1008.74 1009.29 1009.85
1007.00 1006.53 1006.00 1005.38 1004.66 1003.85 1002.99 1002.15 1001.39 1000.76 1000.31 1000.04 999.95 999.99 1000.11 1000.27 1000.40 1000.48 1000.49 1000.44 1000.34 1000.26 1000.24 1000.31 1000.51 1000.86 1001.34 1001.93 1002.60 1003.30 1003.99 1004.63 1005.20 1005.70 1006.12 1006.50 1006.86 1007.22 1007.63 1008.09 1008.61 1009.19 1009.80
1006.96 1006.45 1005.86 1005.15 1004.31 1003.36 1002.34 1001.32 1000.39 999.60 999.03 998.68 998.55 998.62 998.81 999.07 999.34 999.56 999.70 999.77 999.78 999.79 999.83 999.96 1000.22 1000.64 1001.19 1001.86 1002.62 1003.41 1004.17 1004.87 1005.47 1005.97 1006.38 1006.72 1007.03 1007.34 1007.71 1008.13 1008.64 1009.21 1009.82
1007.05 1006.48 1005.80 1004.98 1004.00 1002.88 1001.68 1000.48 999.35 998.40 997.69 997.25 997.08 997.15 997.41 997.78 998.17 998.54 998.84 999.05 999.20 999.32 999.45 999.67 1000.01 1000.49 1001.11 1001.86 1002.69 1003.55 1004.38 1005.14 1005.78 1006.31 1006.73 1007.06 1007.35 1007.64 1007.96 1008.36 1008.82 1009.37 1009.96
1007.25 1006.61 1005.84 1004.89 1003.76 1002.47 1001.09 999.69 998.40 997.28 996.44 995.90 995.68 995.75 996.05 996.50 997.01 997.52 997.97 998.34 998.64 998.89 999.14 999.46 999.87 1000.42 1001.10 1001.91 1002.80 1003.71 1004.60 1005.41 1006.10 1006.68 1007.12 1007.48 1007.78 1008.06 1008.37 1008.73 1009.16 1009.66 1010.20
1007.52 1006.81 1005.94 1004.87 1003.60 1002.17 1000.63 999.08 997.63 996.38 995.42 994.80 994.52 994.57 994.89 995.40 996.00 996.64 997.22 997.74 998.17 998.56 998.92 999.34 999.83 1000.44 1001.18 1002.02 1002.95 1003.90 1004.82 1005.68 1006.42 1007.04 1007.54 1007.94 1008.27 1008.56 1008.87 1009.21 1009.60 1010.04 1010.51
1007.83 1007.06 1006.11 1004.95 1003.58 1002.04 1000.40 998.74 997.20 995.85 994.81 994.11 993.78 993.80 994.11 994.64 995.31 996.02 996.71 997.34 997.89 998.40 998.87 999.38 999.94 1000.60 1001.37 1002.23 1003.17 1004.14 1005.08 1005.96 1006.75 1007.42 1007.96 1008.41 1008.78 1009.11 1009.42 1009.74 1010.09 1010.46 1010.86
1008.14 1007.34 1006.34 1005.14 1003.74 1002.16 1000.48 998.80 997.21 995.83 994.74 993.99 993.61 993.59 993.88 994.40 995.07 995.81 996.56 997.26 997.90 998.49 999.05 999.62 1000.24 1000.94 1001.72 1002.59 1003.52 1004.47 1005.41 1006.30 1007.10 1007.80 1008.39 1008.88 1009.29 1009.64 1009.97 1010.28 1010.59 1010.90 1011.22
1008.45 1007.65 1006.67 1005.48 1004.10 1002.56 1000.93 999.29 997.74 996.38 995.29 994.53 994.11 994.04 994.27 994.75 995.38 996.11 996.86 997.58 998.27 998.91 999.53 1000.15 1000.80 1001.52 1002.30 1003.14 1004.04 1004.96 1005.88 1006.74 1007.54 1008.24 1008.85 1009.36 1009.80 1010.17 1010.50 1010.79 1011.07 1011.33 1011.58
1008.79 1008.03 1007.11 1006.00 1004.71 1003.28 1001.76 1000.23 998.78 997.49 996.45 995.70 995.27 995.15 995.31 995.71 996.27 996.94 997.64 998.35 999.03 999.69 1000.33 1000.98 1001.64 1002.35 1003.11 1003.93 1004.78 1005.64 1006.50 1007.32 1008.08 1008.76 1009.35 1009.86 1010.30 1010.68 1011.00 1011.28 1011.53 1011.74 1011.94
1009.18 1008.50 1007.68 1006.69 1005.55 1004.28 1002.92 1001.56 1000.26 999.10 998.14 997.42 996.99 996.82 996.91 997.22 997.68 998.25 998.88 999.53 1000.18 1000.82 1001.45 1002.09 1002.75 1003.44 1004.17 1004.94 1005.72 1006.52 1007.30 1008.04 1008.73 1009.36 1009.91 1010.40 1010.82 1011.18 1011.48 1011.74 1011.96 1012.15 1012.30
1009.65 1009.08 1008.38 1007.55 1006.58 1005.50 1004.34 1003.17 1002.05 1001.04 1000.18 999.53 999.11 998.91 998.93 999.14 999.49 999.95 1000.48 1001.04 1001.63 1002.22 1002.83 1003.44 1004.08 1004.74 1005.42 1006.12 1006.84 1007.54 1008.23 1008.88 1009.48 1010.03 1010.52 1010.96 1011.34 1011.66 1011.95 1012.18 1012.39 1012.55 1012.68
1010.22 1009.76 1009.20 1008.52 1007.72 1006.84 1005.89 1004.92 1003.98 1003.12 1002.39 1001.81 1001.42 1001.20 1001.16 1001.28 1001.53 1001.88 1002.30 1002.77 1003.28 1003.81 1004.36 1004.94 1005.54 1006.14 1006.77 1007.40 1008.03 1008.64 1009.23 1009.77 1010.28 1010.74 1011.14 1011.51 1011.84 1012.13 1012.38 1012.60 1012.79 1012.94 1013.06
1010.86 1010.52 1010.08 1009.54 1008.90 1008.18 1007.41 1006.62 1005.86 1005.15 1004.53 1004.04 1003.68 1003.47 1003.39 1003.44 1003.60 1003.86 1004.18 1004.56 1004.98 1005.45 1005.94 1006.46 1007.00 1007.55 1008.11 1008.66 1009.20 1009.72 1010.20 1010.64 1011.04 1011.40 1011.73 1012.03 1012.30 1012.55 1012.77 1012.98 1013.16 1013.32 1013.45
1011.56 1011.30 1010.95 1010.51 1009.99 1009.41 1008.78 1008.14 1007.52 1006.94 1006.44 1006.03 1005.72 1005.53 1005.44 1005.45 1005.54 1005.72 1005.97 1006.27 1006.62 1007.00 1007.43 1007.88 1008.36 1008.84 1009.33 1009.80 1010.25 1010.67 1011.06 1011.40 1011.70 1011.98 1012.23 1012.46 1012.68 1012.90 1013.11 1013.31 1013.50 1013.66 1013.81
1012.26 1012.04 1011.74 1011.37 1010.93 1010.44 1009.91 1009.38 1008.86 1008.39 1007.98 1007.65 1007.40 1007.24 1007.16 1007.16 1007.22 1007.36 1007.54 1007.78 1008.06 1008.38 1008.74 1009.12 1009.52 1009.93 1010.34 1010.73 1011.10 1011.43 1011.73 1011.99 1012.22 1012.42 1012.61 1012.79 1012.98 1013.17 1013.37 1013.58 1013.78 1013.96 1014.13
Thickness
5760 5759 5756 5752 5746 5740 5735 5731 5727 5724 5721 5717 5713 5709 5708 5708 5706 5705 5704 5702 5701 5700 5698 5696 5696 5695 5694 5693 5692 5690 5688 5687 5688 5685 5686 5690 5694 5695 5695 5696 5695 5696 5695
5751 5749 5747 5744 5739 5734 5730 5726 5721 5718 5715 5711 5707 5705 5702 5702 5702 5700 5700 5698 5696 5695 5695 5693 5690 5689 5688 5688 5687 5685 5683 5682 5682 5678 5676 5676 5680 5686 5691 5690 5689 5690 5691
5745 5742 5739 5736 5733 5729 5725 5721 5716 5712 5709 5706 5703 5700 5697 5696 5695 5694 5694 5693 5693 5691 5689 5688 5685 5684 5684 5682 5682 5681 5679 5676 5677 5675 5670 5667 5668 5674 5680 5683 5684 5684 5684
5743 5737 5733 5728 5726 5724 5721 5716 5712 5707 5704 5701 5696 5692 5688 5686 5687 5688 5688 5688 5687 5686 5685 5683 5681 5680 5679 5678 5678 5678 5676 5673 5670 5670 5670 5669 5668 5664 5666 5672 5675 5677 5678
5739 5733 5729 5724 5720 5717 5714 5709 5706 5702 5698 5694 5691 5687 5684 5682 5683 5683 5682 5681 5682 5681 5680 5678 5677 5675 5675 5675 5674 5673 5671 5669 5666 5664 5664 5663 5663 5662 5657 5658 5663 5667 5670
5734 5728 5724 5719 5714 5711 5708 5703 5699 5695 5692 5688 5686 5682 5679 5677 5676 5676 5676 5676 5676 5676 5675 5674 5672 5671 5670 5670 5669 5668 5666 5665 5663 5661 5659 5657 5655 5654 5653 5652 5654 5657 5662
5728 5722 5716 5711 5707 5703 5700 5696 5692 5688 5685 5682 5680 5678 5675 5674 5672 5671 5671 5670 5670 5671 5670 5670 5668 5667 5666 5666 5665 5664 5662 5661 5658 5657 5655 5655 5653 5652 5650 5648 5648 5651 5655
5721 5716 5711 5706 5702 5698 5693 5689 5685 5682 5679 5676 5674 5673 5671 5669 5668 5667 5666 5666 5665 5666 5666 5665 5664 5663 5663 5662 5661 5660 5658 5657 5654 5653 5651 5650 5649 5649 5647 5645 5643 5642 5645
5714 5710 5706 5701 5698 5693 5688 5684 5680 5676 5674 5672 5670 5668 5666 5665 5664 5663 5663 5663 5662 5663 5663 5662 5661 5661 5660 5659 5658 5655 5654 5652 5650 5648 5646 5645 5645 5644 5643 5642 5640 5636 5634
5706 5703 5699 5697 5693 5689 5685 5680 5675 5671 5669 5668 5666 5664 5662 5661 5659 5659 5658 5658 5658 5659 5659 5659 5658 5657 5656 5656 5654 5651 5649 5647 5645 5643 5641 5640 5640 5639 5638 5637 5636 5634 5631
5701 5696 5694 5692 5688 5683 5679 5674 5671 5667 5665 5663 5661 5659 5658 5657 5656 5655 5655 5656 5655 5655 5655 5655 5654 5652 5652 5651 5649 5646 5644 5642 5640 5639 5637 5635 5634 5633 5632 5631 5630 5629 5627
5697 5693 5689 5685 5680 5676 5673 5669 5666 5663 5661 5659 5657 5655 5654 5653 5652 5652 5652 5653 5652 5652 5652 5651 5650 5649 5648 5646 5644 5642 5641 5638 5636 5634 5632 5631 5630 5627 5625 5624 5623 5622 5622
5692 5688 5683 5678 5674 5671 5668 5664 5661 5659 5657 5655 5653 5651 5650 5650 5649 5649 5650 5650 5650 5649 5649 5648 5646 5644 5643 5641 5640 5638 5636 5634 5632 5630 5628 5627 5624 5622 5620 5619 5618 5617 5617
5685 5681 5676 5672 5669 5666 5663 5660 5657 5655 5654 5651 5649 5647 5647 5647 5646 5647 5646 5646 5646 5646 5645 5644 5642 5640 5639 5637 5635 5633 5632 5630 5628 5627 5625 5623 5621 5618 5617 5615 5613 5612 5611
5679 5674 5670 5666 5663 5660 5658 5655 5653 5652 5650 5647 5645 5644 5644 5644 5643 5643 5643 5642 5643 5643 5641 5639 5638 5636 5634 5632 5629 5627 5627 5626 5624 5623 5621 5620 5618 5616 5614 5612 5609 5607 5605
5673 5669 5665 5661 5658 5655 5653 5651 5649 5647 5646 5644 5642 5641 5640 5639 5639 5640 5639 5639 5639 5638 5637 5635 5633 5631 5630 5627 5625 5622 5622 5622 5621 5619 5618 5617 5615 5613 5611 5608 5605 5603 5600
5667 5664 5660 5657 5654 5652 5650 5647 5645 5644 5642 5642 5640 5640 5639 5637 5636 5636 5635 5635 5634 5634 5633 5631 5630 5628 5625 5623 5621 5619 5618 5618 5618 5617 5615 5615 5614 5610 5607 5605 5602 5599 5596
5663 5659 5656 5654 5652 5650 5648 5645 5643 5641 5640 5639 5638 5638 5636 5635 5634 5633 5632 5631 5631 5630 5629 5628 5627 5625 5622 5620 5618 5617 5616 5616 5615 5615 5613 5610 5608 5606 5602 5601 5598 5595 5593
5658 5655 5653 5651 5649 5647 5644 5641 5639 5638 5637 5636 5636 5636 5634 5633 5632 5630 5629 5629 5628 5627 5627 5626 5625 5623 5620 5617 5616 5614 5615 5613 5613 5612 5610 5608 5604 5600 5597 5596 5593 5591 5590
5655 5652 5650 5648 5645 5643 5641 5638 5636 5635 5634 5634 5634 5634 5633 5631 5630 5629 5628 5628 5627 5626 5626 5626 5624 5622 5619 5616 5614 5612 5612 5611 5610 5609 5607 5604 5600 5597 5593 5591 5589 5587 5586
5650 5648 5646 5643 5641 5641 5639 5635 5634 5632 5633 5633 5633 5632 5631 5630 5630 5629 5628 5627 5626 5625 5625 5624 5623 5621 5619 5615 5613 5611 5609 5608 5607 5605 5603 5600 5597 5594 5591 5588 5586 5584 5582
5645 5643 5640 5639 5639 5638 5635 5633 5631 5632 5633 5632 5631 5630 5630 5630 5631 5628 5627 5626 5625 5624 5623 5621 5620 5620 5618 5615 5612 5609 5606 5604 5602 5601 5599 5597 5594 5591 5588 5586 5584 5582 5580
5640 5638 5636 5634 5635 5634 5632 5630 5630 5631 5631 5630 5629 5629 5629 5628 5628 5627 5626 5625 5624 5622 5621 5621 5619 5618 5617 5614 5610 5606 5604 5601 5599 5598 5596 5593 5590 5588 5586 5585 5582 5580 5579
5635 5633 5631 5629 5630 5631 5631 5629 5630 5630 5629 5628 5627 5627 5626 5625 5626 5625 5625 5624 5622 5621 5621 5619 5618 5616 5614 5611 5608 5605 5602 5599 5596 5594 5593 5590 5589 5587 5585 5583 5582 5580 5578
5630 5629 5627 5626 5626 5627 5628 5628 5628 5627 5626 5625 5624 5624 5624 5624 5624 5623 5622 5622 5619 5618 5616 5616 5615 5612 5609 5605 5601 5599 5598 5596 5593 5590 5590 5589 5589 5588 5585 5583 5582 5580 5577
5626 5625 5625 5624 5624 5625 5625 5626 5626 5625 5623 5622 5622 5623 5623 5623 5623 5623 5621 5619 5618 5616 5614 5612 5610 5608 5605 5602 5599 5596 5594 5591 5589 5587 5588 5588 5587 5586 5584 5582 5580 5578 5575